Flag for Japan Weather past 2 weeks in Suzuka, Japan

Now
76 °F

Mild.


Feels Like: 78 °F
Forecast: 65 / 82 °F
Wind: 6 mph from East

Location: Tsu

Current Time: Sep 15, 2014 at 1:18:38 PM

Latest Report: Sep 15, 2014 at 12:00 PM


Visibility: N/A

Pressure: 29.92 "Hg

Humidity: 70%

Dew point: 66 °F

Location of SuzukaLocation

Historic Weather in Suzuka — Graph

°F

Suzuka temperature yesterday

Maximum temperature yesterday: 81 °F (at 3:00 PM)
Minimum temperature yesterday: 69 °F (at 4:00 AM)
Average temperature yesterday: 74 °F

Past Weeks' High & Low Weather Summary

 TemperatureHumidityPressure
High88 °F (Sep 7, 3:00 PM)97% (Sep 5, 5:00 AM)29.98 "Hg (Sep 5, 5:00 AM)
Low66 °F (Sep 15, 4:00 AM)31% (Sep 12, 1:00 PM)29.64 "Hg (Sep 9, 1:00 AM)
Average75 °F75%29.86 "Hg
* Reported Aug 31 11:00 AM — Sep 15 11:00 AM, Suzuka, Weather by CustomWeather, © 2014

Note: Actual official high and low records may vary slightly from our data, if they occured in-between our weather recording intervals... More about our weather records

Advertising

Suzuka weather history for previous 24 hours

 ConditionsComfort  
Time TempWeatherWind HumidityBarometerVisibility
11:00 AM
Sep 15
75 °FMild.5 mph70%29.95 "HgN/A
10:00 AM73 °FMild.3 mph71%29.98 "HgN/A
9:00 AM73 °FOvercast.3 mph71%29.97 "Hg9 mi
8:00 AM72 °FMild.3 mph70%29.97 "HgN/A
7:00 AM70 °FMild.3 mph75%29.96 "HgN/A
6:00 AM67 °FMild.5 mph81%29.96 "HgN/A
5:00 AM68 °FMild.5 mph80%29.96 "HgN/A
4:00 AM66 °FMild.5 mph79%29.96 "HgN/A
3:00 AM67 °FMild.3 mph77%29.96 "HgN/A
2:00 AM68 °FMild.2 mph76%29.95 "HgN/A
1:00 AM68 °FMild.5 mph75%29.95 "HgN/A
12:00 AM69 °FMild.6 mph73%29.95 "HgN/A
11:00 PM
Sep 14
70 °FMild.5 mph72%29.97 "HgN/A
10:00 PM71 °FMild.6 mph68%29.96 "HgN/A
9:00 PM72 °FPassing clouds.6 mph65%29.97 "Hg12 mi
8:00 PM75 °FMild.7 mph60%29.92 "HgN/A
7:00 PM77 °FMild.5 mph54%29.91 "HgN/A
6:00 PM78 °FWarm.5 mph58%29.89 "HgN/A
5:00 PM79 °FWarm.7 mph57%29.89 "HgN/A
4:00 PM80 °FWarm.8 mph54%29.87 "HgN/A
3:00 PM81 °FPassing clouds.7 mph48%29.88 "Hg25 mi
2:00 PM81 °FWarm.12 mph53%29.88 "HgN/A
1:00 PM81 °FWarm.10 mph55%29.89 "HgN/A
Weather by CustomWeather, © 2014

See weather overviewHow to use our weather pages